STARLINK-11561, 62908

Orbit data source: Space-Track

STARLINK-11561, 62908 is a payload satellite owned by SpaceX/Seattle (US) in LEO that was launched on Sat, 08 Feb 2025 UTC via an FALCON 9 launch vehicle from the Air Force Eastern Test Range (AFETR). Payload-class satellites include a variety of spacecraft equipped with specific instruments for various scientific and technological missions. These include communications satellites like Starlink; space stations such as the ISS; scientific satellites like the Hubble; Earth observation satellites from companies like Planet Labs, Umbra, and HawkEye 360; GPS; miniature CubeSats for education and research; and military/defense satellites.

Loading next visibility...
Identifier
62908, 2025-027B
Orbit
LEO
Country
Flag of USUS
Related business
Manufacturer
SpaceX/Seattle
Mission
Operational Commercial Communications
Bus & Motor
STARLINK V2MD, Unknown motor
Mass
960 kg wet, ~910 kg dry
Launch date (UTC)
2025-02-08 (7 months ago)
Launch vehicle
FALCON 9
Launch site
Air Force Eastern Test Range (AFETR)
Object type
Payload
Rocket body
Debris
Shape & HBR
Box + 2 Pan, 14.5 m
Radar Cross Section
36.964 m², Large (>1 m²)

Expand to show TLE details & history
Last TLE update: 18 hours ago

TLE from 18 hours ago
0 STARLINK-11561
1 62908U 25027B   25259.52642817  .00264941  00000-0  19996-2 0  9991
2 62908  43.0011 317.2083 0002866 226.5364 133.5266 15.70881144 35766
Epoch: 2025-09-16T12:38Z
TLE epoch observation values (Epoch: 2025-09-16T12:38:03.393Z)
Latitude
-0.00001°
Longitude
131.97869°
Altitude
357.478 km
Speed
7.696 km/s
True Right ascension
21h 08m 49s
True Declination
0° 00' 00"
Sunlit
Object was in full shadow at epoch
Visualization orbit readout
Latitude
Unknown
Longitude
Unknown
Altitude
Unknown
Speed
Unknown
Apparent Right ascension
Unknown
Apparent Declination
Unknown
Sunlit
N/A
Visualization observer readout
Local Sidereal Time
23:31:58
Azimuth
Unknown
Elevation
Unknown
Doppler factor
Unknown
Orbital elements
Apogee altitude
360.29 km
Perigee altitude
356.428 km
Semi-major axis
6,736.496 km
Eccentricity
0.00029
Inclination
43.0011°
RAAN
317.2083°
Arg. of periapsis
226.5364°
True anomaly
133.55041°
Mean anomaly
133.5266°
Eccentric anomaly
133.5385°
Mean motion
3.92547 °/min
Orbital period
91.71 mins
BSTAR
0.0019996
Loading maneuver chart data...
Computing Atmospheric mass density...
Loading historical data...
Loading historical data...
Loading historical data...
Loading historical data...
Loading historical data...
Loading historical data...
Loading historical data...

Documentation

Showing up to 5 results
|